Location: Peebles
(55.6412°N, 3.1714°W)
Time: 14:43:40
(UTC+01:00)

Cosmos 2227 Rocket - Pass Details

Date: 26 September 2021
Orbit: 837 x 846 km, 71.0° (Epoch: 17 October)

Event Time Altitude Azimuth Distance (km) Brightness Sun altitude
Rises 21:54:09 0° 325° (NW) 3,421 6.6 -23.9°
Reaches altitude 10° 21:56:38 10° 328° (NNW) 2,482 5.6 -24.1°
Maximum altitude 22:02:19 69° 52° (NE) 907 2.2 -24.8°
Enters shadow 22:03:02 62° 96° (E) 951 2.1 -24.9°
